User: anonymous   Login
Location: Vancouver
(49.2500°N, 123.1330°W)
Time: 09:18:28
(UTC-07:00)
Language:

ERS-2 - Orbit

View from above orbital plane
View from above orbital plane
View from above satellite
View from above satellite

Ground track
Ground track

The orbit data is extracted from the following two-line orbital elements,

1 23560U 95021A   15124.83845794  .00005398  00000-0  29178-3 0  9999
2 23560 098.5323 008.4128 0005290 054.8506 305.3211 15.15192945 57880
Epoch (UTC): 04 May 2015 20:07:22
Eccentricity: 0.0005290
inclination: 98.5323°
perigee height: 517 km
apogee height: 524 km
right ascension of ascending node: 8.4128°
argument of perigee: 54.8506°
revolutions per day: 15.15192945
mean anomaly at epoch: 305.3211°
orbit number at epoch: 5788

The dashed part of the orbit path shows where the satellite is in the earth's shadow,  

DLR